Time,TemperatureF,DewpointF,PressureIn,WindDirection,WindDirectionDegrees,WindSpeedMPH,WindSpeedGustMPH,Humidity,HourlyPrecipIn,Conditions,Clouds,dailyrainin,SolarRadiationWatts/m^2,SoftwareType,DateUTC
2013-06-23 00:01:00,62.3,60.8,30.11,East,101,0.0,0.0,95,0.00,,,0.00,0,Wunderground v.1.15,2013-06-23 04:01:00,
2013-06-23 00:02:00,62.3,60.8,30.11,East,101,0.0,0.0,95,0.00,,,0.00,0,Wunderground v.1.15,2013-06-23 04:02:00,
2013-06-23 00:04:00,62.3,60.8,30.11,East,101,0.0,0.0,95,0.00,,,0.00,0,Wunderground v.1.15,2013-06-23 04:04:00,
2013-06-23 00:09:00,62.3,60.8,30.11,East,101,0.0,0.0,95,0.00,,,0.00,0,Wunderground v.1.15,2013-06-23 04:09:00,
2013-06-23 00:14:00,62.3,60.8,30.12,SE,140,0.0,1.0,95,0.00,,,0.00,0,Wunderground v.1.15,2013-06-23 04:14:00,
2013-06-23 00:15:00,62.3,60.8,30.12,SE,140,0.0,1.0,95,0.00,,,0.00,0,Wunderground v.1.15,2013-06-23 04:15:00,
2013-06-23 00:20:00,62.2,60.8,30.12,SE,140,0.0,0.0,95,0.00,,,0.00,0,Wunderground v.1.15,2013-06-23 04:20:00,
2013-06-23 00:25:00,62.3,60.8,30.12,SE,140,0.0,2.0,95,0.00,,,0.00,0,Wunderground v.1.15,2013-06-23 04:25:00,
2013-06-23 00:31:00,62.2,60.8,30.12,SE,140,0.0,0.0,95,0.00,,,0.00,0,Wunderground v.1.15,2013-06-23 04:31:00,
2013-06-23 00:36:00,62.2,60.8,30.12,SE,140,0.0,0.0,95,0.00,,,0.00,0,Wunderground v.1.15,2013-06-23 04:36:00,
2013-06-23 00:42:00,62.2,60.8,30.12,SSW,201,0.0,2.0,95,0.00,,,0.00,0,Wunderground v.1.15,2013-06-23 04:42:00,
2013-06-23 00:47:00,62.1,60.7,30.12,SSW,200,0.0,2.0,95,0.00,,,0.00,0,Wunderground v.1.15,2013-06-23 04:47:00,
2013-06-23 00:53:00,62.1,60.7,30.11,South,189,0.0,1.0,95,0.00,,,0.00,0,Wunderground v.1.15,2013-06-23 04:53:00,
2013-06-23 00:59:00,62.1,60.7,30.11,South,175,0.0,1.0,95,0.00,,,0.00,0,Wunderground v.1.15,2013-06-23 04:59:00,
2013-06-23 01:04:00,62.1,60.7,30.11,SSE,159,0.0,0.0,95,0.00,,,0.00,0,Wunderground v.1.15,2013-06-23 05:04:00,
2013-06-23 01:09:00,62.0,60.6,30.12,South,188,0.0,2.0,95,0.00,,,0.00,0,Wunderground v.1.15,2013-06-23 05:09:00,
2013-06-23 01:14:00,62.1,60.7,30.12,SSW,209,0.0,1.0,95,0.00,,,0.00,0,Wunderground v.1.15,2013-06-23 05:14:00,
2013-06-23 01:20:00,62.1,60.7,30.12,SSW,209,0.0,0.0,95,0.00,,,0.00,0,Wunderground v.1.15,2013-06-23 05:20:00,
2013-06-23 01:25:00,62.1,60.7,30.12,SSW,209,0.0,0.0,95,0.00,,,0.00,0,Wunderground v.1.15,2013-06-23 05:25:00,
2013-06-23 01:30:00,62.1,60.7,30.12,SSW,209,0.0,0.0,95,0.00,,,0.00,0,Wunderground v.1.15,2013-06-23 05:30:00,
2013-06-23 01:35:00,62.2,60.8,30.12,SSW,205,0.0,0.0,95,0.00,,,0.00,0,Wunderground v.1.15,2013-06-23 05:35:00,
2013-06-23 01:41:00,62.1,60.7,30.12,SSW,205,0.0,0.0,95,0.00,,,0.00,0,Wunderground v.1.15,2013-06-23 05:41:00,
2013-06-23 01:46:00,62.1,60.7,30.12,SSW,205,0.0,1.0,95,0.00,,,0.00,0,Wunderground v.1.15,2013-06-23 05:46:00,
2013-06-23 01:51:00,62.1,60.7,30.12,SSW,205,0.0,0.0,95,0.00,,,0.00,0,Wunderground v.1.15,2013-06-23 05:51:00,
2013-06-23 01:56:00,62.1,60.7,30.11,SSW,205,0.0,0.0,95,0.00,,,0.00,0,Wunderground v.1.15,2013-06-23 05:56:00,
2013-06-23 02:01:00,62.1,60.7,30.11,SSW,205,0.0,0.0,95,0.00,,,0.00,0,Wunderground v.1.15,2013-06-23 06:01:00,
2013-06-23 02:06:00,62.1,60.7,30.11,SSW,205,0.0,0.0,95,0.00,,,0.00,0,Wunderground v.1.15,2013-06-23 06:06:00,
2013-06-23 02:08:00,62.1,60.7,30.11,SSW,205,0.0,0.0,95,0.00,,,0.00,0,Wunderground v.1.15,2013-06-23 06:08:00,
2013-06-23 02:13:00,62.1,60.7,30.11,SSW,206,0.0,2.0,95,0.00,,,0.00,0,Wunderground v.1.15,2013-06-23 06:13:00,
2013-06-23 02:19:00,62.1,60.7,30.11,SSW,205,0.0,2.0,95,0.00,,,0.00,0,Wunderground v.1.15,2013-06-23 06:19:00,
2013-06-23 02:25:00,62.1,60.7,30.11,SSW,205,0.0,0.0,95,0.00,,,0.00,0,Wunderground v.1.15,2013-06-23 06:25:00,
2013-06-23 02:31:00,62.1,60.7,30.11,SSW,205,0.0,0.0,95,0.00,,,0.00,0,Wunderground v.1.15,2013-06-23 06:31:00,
2013-06-23 02:36:00,62.1,60.7,30.11,SSW,205,0.0,0.0,95,0.00,,,0.00,0,Wunderground v.1.15,2013-06-23 06:36:00,
2013-06-23 02:42:00,62.1,60.7,30.11,SSW,205,0.0,0.0,95,0.00,,,0.00,0,Wunderground v.1.15,2013-06-23 06:42:00,
2013-06-23 02:47:00,62.1,60.7,30.11,SSW,205,0.0,0.0,95,0.00,,,0.00,0,Wunderground v.1.15,2013-06-23 06:47:00,
2013-06-23 02:53:00,62.1,60.7,30.11,SSW,205,0.0,0.0,95,0.00,,,0.00,0,Wunderground v.1.15,2013-06-23 06:53:00,
2013-06-23 02:58:00,62.1,60.7,30.11,SSW,205,0.0,0.0,95,0.00,,,0.00,0,Wunderground v.1.15,2013-06-23 06:58:00,
2013-06-23 03:03:00,62.1,60.7,30.11,SSW,205,0.0,0.0,95,0.00,,,0.00,0,Wunderground v.1.15,2013-06-23 07:03:00,
2013-06-23 03:09:00,62.1,60.7,30.11,SSW,205,0.0,1.0,95,0.00,,,0.00,0,Wunderground v.1.15,2013-06-23 07:09:00,
2013-06-23 03:15:00,62.1,60.7,30.11,SSW,205,0.0,0.0,95,0.00,,,0.00,0,Wunderground v.1.15,2013-06-23 07:15:00,
2013-06-23 03:21:00,62.1,60.7,30.11,SSW,205,0.0,1.0,95,0.00,,,0.00,0,Wunderground v.1.15,2013-06-23 07:21:00,
2013-06-23 03:26:00,62.2,61.0,30.11,SSW,205,0.0,1.0,96,0.00,,,0.00,0,Wunderground v.1.15,2013-06-23 07:26:00,
2013-06-23 03:32:00,62.2,61.0,30.11,SSW,202,0.0,1.0,96,0.00,,,0.00,0,Wunderground v.1.15,2013-06-23 07:32:00,
2013-06-23 03:38:00,62.2,61.0,30.11,SSW,195,0.0,1.0,96,0.00,,,0.00,0,Wunderground v.1.15,2013-06-23 07:38:00,
2013-06-23 03:43:00,62.1,60.9,30.10,SSW,195,0.0,0.0,96,0.00,,,0.00,0,Wunderground v.1.15,2013-06-23 07:43:00,
2013-06-23 03:48:00,62.1,60.9,30.10,South,173,0.0,0.0,96,0.00,,,0.00,0,Wunderground v.1.15,2013-06-23 07:48:00,
2013-06-23 03:53:00,62.1,60.9,30.10,ENE,58,0.0,1.0,96,0.00,,,0.00,0,Wunderground v.1.15,2013-06-23 07:53:00,
2013-06-23 03:59:00,62.2,61.0,30.10,NNW,333,1.0,2.0,96,0.00,,,0.00,0,Wunderground v.1.15,2013-06-23 07:59:00,
2013-06-23 04:05:00,62.2,61.0,30.10,NNW,333,0.0,1.0,96,0.00,,,0.00,0,Wunderground v.1.15,2013-06-23 08:05:00,
2013-06-23 04:10:00,62.2,61.0,30.10,NNW,333,0.0,0.0,96,0.00,,,0.00,0,Wunderground v.1.15,2013-06-23 08:10:00,
2013-06-23 04:16:00,62.1,60.7,30.10,NNW,333,0.0,0.0,95,0.00,,,0.00,0,Wunderground v.1.15,2013-06-23 08:16:00,
2013-06-23 04:21:00,62.1,60.7,30.10,NNW,333,0.0,0.0,95,0.00,,,0.00,0,Wunderground v.1.15,2013-06-23 08:21:00,
2013-06-23 04:27:00,62.1,60.7,30.10,NNW,333,0.0,0.0,95,0.00,,,0.00,0,Wunderground v.1.15,2013-06-23 08:27:00,
2013-06-23 04:32:00,62.1,60.7,30.10,NNW,333,0.0,0.0,95,0.00,,,0.00,0,Wunderground v.1.15,2013-06-23 08:32:00,
2013-06-23 04:38:00,62.1,60.9,30.10,NNW,333,0.0,0.0,96,0.00,,,0.00,0,Wunderground v.1.15,2013-06-23 08:38:00,
2013-06-23 04:43:00,62.2,61.0,30.11,NNW,333,0.0,0.0,96,0.00,,,0.00,0,Wunderground v.1.15,2013-06-23 08:43:00,
2013-06-23 04:48:00,62.2,61.0,30.11,NW,314,0.0,1.0,96,0.00,,,0.00,0,Wunderground v.1.15,2013-06-23 08:48:00,
2013-06-23 04:54:00,62.2,61.0,30.11,NW,314,0.0,0.0,96,0.00,,,0.00,0,Wunderground v.1.15,2013-06-23 08:54:00,
2013-06-23 04:59:00,62.2,61.0,30.12,NW,314,0.0,0.0,96,0.00,,,0.00,0,Wunderground v.1.15,2013-06-23 08:59:00,
2013-06-23 05:04:00,62.2,61.0,30.12,NW,314,0.0,0.0,96,0.00,,,0.00,0,Wunderground v.1.15,2013-06-23 09:04:00,
2013-06-23 05:09:00,62.2,61.0,30.13,NW,314,0.0,0.0,96,0.00,,,0.00,5,Wunderground v.1.15,2013-06-23 09:09:00,
2013-06-23 05:14:00,62.2,61.0,30.12,NW,314,0.0,0.0,96,0.00,,,0.00,5,Wunderground v.1.15,2013-06-23 09:14:00,
2013-06-23 05:19:00,62.2,61.0,30.12,NW,315,0.0,0.0,96,0.00,,,0.00,5,Wunderground v.1.15,2013-06-23 09:19:00,
2013-06-23 05:25:00,62.2,61.0,30.12,NW,314,0.0,0.0,96,0.00,,,0.00,7,Wunderground v.1.15,2013-06-23 09:25:00,
2013-06-23 05:30:00,62.2,61.0,30.12,NW,315,0.0,0.0,96,0.00,,,0.01,9,Wunderground v.1.15,2013-06-23 09:30:00,
2013-06-23 05:36:00,62.2,61.0,30.12,NW,314,0.0,0.0,96,0.00,,,0.01,9,Wunderground v.1.15,2013-06-23 09:36:00,
2013-06-23 05:41:00,62.2,61.0,30.12,NW,315,0.0,0.0,96,0.00,,,0.01,11,Wunderground v.1.15,2013-06-23 09:41:00,
2013-06-23 05:47:00,62.2,61.0,30.12,NW,314,0.0,0.0,96,0.00,,,0.01,11,Wunderground v.1.15,2013-06-23 09:47:00,
2013-06-23 05:52:00,62.2,61.0,30.13,NNW,344,0.0,2.0,96,0.00,,,0.01,12,Wunderground v.1.15,2013-06-23 09:52:00,
2013-06-23 05:58:00,62.2,61.0,30.12,NNW,344,0.0,2.0,96,0.00,,,0.01,14,Wunderground v.1.15,2013-06-23 09:58:00,
2013-06-23 06:04:00,62.2,61.0,30.12,NNW,344,0.0,2.0,96,0.00,,,0.01,14,Wunderground v.1.15,2013-06-23 10:04:00,
2013-06-23 06:10:00,62.2,61.3,30.12,NNW,344,0.0,0.0,97,0.00,,,0.02,12,Wunderground v.1.15,2013-06-23 10:10:00,
2013-06-23 06:15:00,62.2,61.3,30.11,NNW,344,0.0,0.0,97,0.00,,,0.02,21,Wunderground v.1.15,2013-06-23 10:15:00,
2013-06-23 06:20:00,62.3,61.4,30.11,NNW,344,0.0,0.0,97,0.00,,,0.02,23,Wunderground v.1.15,2013-06-23 10:20:00,
2013-06-23 06:25:00,62.5,61.6,30.11,NNW,344,0.0,0.0,97,0.00,,,0.02,16,Wunderground v.1.15,2013-06-23 10:25:00,
2013-06-23 06:30:00,62.5,61.6,30.11,NNW,344,0.0,0.0,97,0.00,,,0.02,12,Wunderground v.1.15,2013-06-23 10:30:00,
2013-06-23 06:35:00,62.5,61.6,30.11,NNW,344,0.0,0.0,97,0.00,,,0.02,12,Wunderground v.1.15,2013-06-23 10:35:00,
2013-06-23 06:41:00,62.6,61.7,30.10,East,96,0.0,0.0,97,0.00,,,0.02,16,Wunderground v.1.15,2013-06-23 10:41:00,
2013-06-23 06:46:00,62.6,61.7,30.10,East,96,0.0,0.0,97,0.00,,,0.02,26,Wunderground v.1.15,2013-06-23 10:46:00,
2013-06-23 06:51:00,62.6,61.7,30.10,East,96,0.0,0.0,97,0.00,,,0.02,42,Wunderground v.1.15,2013-06-23 10:51:00,
2013-06-23 06:56:00,62.6,61.7,30.10,East,96,0.0,1.0,97,0.00,,,0.02,51,Wunderground v.1.15,2013-06-23 10:56:00,
2013-06-23 07:01:00,62.7,62.1,30.10,East,96,0.0,0.0,98,0.00,,,0.03,51,Wunderground v.1.15,2013-06-23 11:01:00,
2013-06-23 07:06:00,62.9,62.3,30.10,East,96,0.0,1.0,98,0.00,,,0.03,58,Wunderground v.1.15,2013-06-23 11:06:00,
2013-06-23 07:12:00,63.1,62.5,30.09,East,96,0.0,1.0,98,0.00,,,0.03,65,Wunderground v.1.15,2013-06-23 11:12:00,
2013-06-23 07:17:00,63.2,62.6,30.09,East,96,0.0,1.0,98,0.00,,,0.03,76,Wunderground v.1.15,2013-06-23 11:17:00,
2013-06-23 07:23:00,63.4,62.8,30.10,East,96,1.0,1.0,98,0.00,,,0.03,81,Wunderground v.1.15,2013-06-23 11:23:00,
2013-06-23 07:28:00,63.6,63.0,30.10,WNW,298,1.0,2.0,98,0.00,,,0.03,84,Wunderground v.1.15,2013-06-23 11:28:00,
2013-06-23 07:33:00,63.9,63.3,30.10,WNW,298,0.0,1.0,98,0.00,,,0.03,79,Wunderground v.1.15,2013-06-23 11:33:00,
2013-06-23 07:39:00,64.2,63.6,30.11,WNW,298,0.0,1.0,98,0.00,,,0.03,54,Wunderground v.1.15,2013-06-23 11:39:00,
2013-06-23 07:45:00,64.4,63.8,30.11,WNW,298,0.0,0.0,98,0.00,,,0.03,35,Wunderground v.1.15,2013-06-23 11:45:00,
2013-06-23 07:50:00,64.5,63.9,30.11,WNW,298,0.0,0.0,98,0.00,,,0.03,44,Wunderground v.1.15,2013-06-23 11:50:00,
2013-06-23 07:55:00,64.5,63.9,30.11,WNW,283,0.0,1.0,98,0.00,,,0.03,51,Wunderground v.1.15,2013-06-23 11:55:00,
2013-06-23 08:00:00,64.4,63.8,30.12,South,178,0.0,1.0,98,0.00,,,0.03,42,Wunderground v.1.15,2013-06-23 12:00:00,
2013-06-23 08:06:00,64.3,63.7,30.12,SW,221,1.0,3.0,98,0.00,,,0.03,40,Wunderground v.1.15,2013-06-23 12:06:00,
2013-06-23 08:11:00,64.2,63.6,30.13,SSE,157,2.0,3.0,98,0.00,,,0.03,40,Wunderground v.1.15,2013-06-23 12:11:00,
2013-06-23 08:16:00,64.1,63.5,30.13,South,186,2.0,3.0,98,0.00,,,0.03,30,Wunderground v.1.15,2013-06-23 12:16:00,
2013-06-23 08:21:00,63.9,63.3,30.13,SSE,166,2.0,2.0,98,0.00,,,0.03,53,Wunderground v.1.15,2013-06-23 12:21:00,
2013-06-23 08:27:00,63.3,62.4,30.14,SE,138,3.0,3.0,97,0.00,,,0.03,79,Wunderground v.1.15,2013-06-23 12:27:00,
2013-06-23 08:33:00,62.8,61.9,30.14,SW,218,3.0,3.0,97,0.00,,,0.03,113,Wunderground v.1.15,2013-06-23 12:33:00,
2013-06-23 08:38:00,62.7,61.8,30.14,SSW,194,2.0,3.0,97,0.00,,,0.03,97,Wunderground v.1.15,2013-06-23 12:38:00,
2013-06-23 08:43:00,62.5,61.6,30.14,South,178,2.0,2.0,97,0.00,,,0.03,70,Wunderground v.1.15,2013-06-23 12:43:00,
2013-06-23 08:49:00,62.5,61.6,30.14,South,175,1.0,2.0,97,0.00,,,0.03,95,Wunderground v.1.15,2013-06-23 12:49:00,
2013-06-23 08:54:00,62.6,62.0,30.14,South,175,0.0,1.0,98,0.00,,,0.03,118,Wunderground v.1.15,2013-06-23 12:54:00,
2013-06-23 09:00:00,62.8,62.2,30.13,South,175,0.0,0.0,98,0.00,,,0.03,74,Wunderground v.1.15,2013-06-23 13:00:00,
2013-06-23 09:06:00,63.0,62.4,30.13,South,169,0.0,2.0,98,0.00,,,0.04,83,Wunderground v.1.15,2013-06-23 13:06:00,
2013-06-23 09:11:00,63.1,62.2,30.11,SE,142,1.0,3.0,97,0.00,,,0.04,84,Wunderground v.1.15,2013-06-23 13:11:00,
2013-06-23 09:16:00,63.3,62.4,30.11,SSE,161,2.0,3.0,97,0.00,,,0.04,135,Wunderground v.1.15,2013-06-23 13:16:00,
2013-06-23 09:22:00,63.6,63.0,30.12,SE,127,1.0,1.0,98,0.00,,,0.04,178,Wunderground v.1.15,2013-06-23 13:22:00,
2013-06-23 09:28:00,64.0,63.4,30.12,SSW,209,0.0,1.0,98,0.00,,,0.04,262,Wunderground v.1.15,2013-06-23 13:28:00,
2013-06-23 09:33:00,64.2,63.6,30.12,SSW,196,0.0,1.0,98,0.00,,,0.04,202,Wunderground v.1.15,2013-06-23 13:33:00,
2013-06-23 09:38:00,64.4,63.8,30.11,SSW,196,1.0,1.0,98,0.00,,,0.04,213,Wunderground v.1.15,2013-06-23 13:38:00,
2013-06-23 09:44:00,64.7,64.1,30.11,SSW,192,1.0,1.0,98,0.00,,,0.04,295,Wunderground v.1.15,2013-06-23 13:44:00,
2013-06-23 09:49:00,65.0,64.4,30.10,SSW,192,0.0,1.0,98,0.00,,,0.04,316,Wunderground v.1.15,2013-06-23 13:49:00,
2013-06-23 09:55:00,65.4,64.5,30.10,SSW,201,1.0,2.0,97,0.00,,,0.04,475,Wunderground v.1.15,2013-06-23 13:55:00,
2013-06-23 10:01:00,65.8,64.9,30.10,South,175,2.0,4.0,97,0.00,,,0.05,812,Wunderground v.1.15,2013-06-23 14:01:00,
2013-06-23 10:06:00,66.3,65.1,30.10,South,186,3.0,5.0,96,0.00,,,0.05,707,Wunderground v.1.15,2013-06-23 14:06:00,
2013-06-23 10:11:00,66.8,65.3,30.10,SSW,196,2.0,3.0,95,0.00,,,0.05,466,Wunderground v.1.15,2013-06-23 14:11:00,
2013-06-23 10:17:00,67.3,65.5,30.10,SSW,211,2.0,3.0,94,0.00,,,0.05,473,Wunderground v.1.15,2013-06-23 14:17:00,
2013-06-23 10:23:00,67.7,65.6,30.10,South,177,2.0,3.0,93,0.00,,,0.05,476,Wunderground v.1.15,2013-06-23 14:23:00,
2013-06-23 10:28:00,68.2,65.8,30.09,South,180,2.0,3.0,92,0.00,,,0.05,381,Wunderground v.1.15,2013-06-23 14:28:00,
2013-06-23 10:33:00,68.5,65.8,30.09,South,173,1.0,2.0,91,0.00,,,0.05,311,Wunderground v.1.15,2013-06-23 14:33:00,
2013-06-23 10:38:00,68.6,65.2,30.09,SSW,196,1.0,4.0,89,0.00,,,0.05,348,Wunderground v.1.15,2013-06-23 14:38:00,
2013-06-23 10:43:00,68.5,64.8,30.09,South,184,2.0,4.0,88,0.00,,,0.05,290,Wunderground v.1.15,2013-06-23 14:43:00,
2013-06-23 10:49:00,68.3,64.3,30.09,SSW,195,2.0,5.0,87,0.00,,,0.05,448,Wunderground v.1.15,2013-06-23 14:49:00,
2013-06-23 10:54:00,68.4,64.4,30.09,WSW,254,2.0,3.0,87,0.00,,,0.05,527,Wunderground v.1.15,2013-06-23 14:54:00,
2013-06-23 10:59:00,68.8,65.1,30.10,SSW,204,2.0,5.0,88,0.00,,,0.05,814,Wunderground v.1.15,2013-06-23 14:59:00,
2013-06-23 11:05:00,69.4,65.0,30.09,SE,128,2.0,3.0,86,0.00,,,0.05,519,Wunderground v.1.15,2013-06-23 15:05:00,
2013-06-23 11:10:00,69.7,65.0,30.09,SSW,194,2.0,5.0,85,0.00,,,0.05,534,Wunderground v.1.15,2013-06-23 15:10:00,
2013-06-23 11:15:00,70.2,65.5,30.09,South,179,3.0,10.0,85,0.00,,,0.05,904,Wunderground v.1.15,2013-06-23 15:15:00,
2013-06-23 11:20:00,70.6,65.9,30.08,SSW,204,3.0,4.0,85,0.00,,,0.05,911,Wunderground v.1.15,2013-06-23 15:20:00,
2013-06-23 11:26:00,71.1,66.0,30.08,SSW,197,3.0,7.0,84,0.00,,,0.05,872,Wunderground v.1.15,2013-06-23 15:26:00,
2013-06-23 11:31:00,71.2,65.4,30.09,SSE,161,4.0,7.0,82,0.00,,,0.05,712,Wunderground v.1.15,2013-06-23 15:31:00,
2013-06-23 11:37:00,71.1,65.7,30.08,South,189,3.0,7.0,83,0.00,,,0.05,912,Wunderground v.1.15,2013-06-23 15:37:00,
2013-06-23 11:43:00,71.3,65.5,30.08,South,175,3.0,3.0,82,0.00,,,0.05,889,Wunderground v.1.15,2013-06-23 15:43:00,
2013-06-23 11:48:00,71.3,65.2,30.08,SSW,202,4.0,6.0,81,0.00,,,0.05,882,Wunderground v.1.15,2013-06-23 15:48:00,
2013-06-23 11:53:00,71.5,65.7,30.08,SSW,192,4.0,4.0,82,0.00,,,0.05,854,Wunderground v.1.15,2013-06-23 15:53:00,
2013-06-23 11:58:00,72.0,66.2,30.08,SW,215,3.0,4.0,82,0.00,,,0.05,914,Wunderground v.1.15,2013-06-23 15:58:00,
2013-06-23 12:03:00,72.2,66.0,30.08,SSE,159,3.0,4.0,81,0.00,,,0.05,937,Wunderground v.1.15,2013-06-23 16:03:00,
2013-06-23 12:09:00,72.6,66.4,30.08,ESE,117,3.0,4.0,81,0.00,,,0.05,898,Wunderground v.1.15,2013-06-23 16:09:00,
2013-06-23 12:15:00,73.2,66.7,30.08,SSE,150,3.0,4.0,80,0.00,,,0.05,888,Wunderground v.1.15,2013-06-23 16:15:00,
2013-06-23 12:21:00,73.7,67.1,30.08,SSE,162,3.0,3.0,80,0.00,,,0.05,872,Wunderground v.1.15,2013-06-23 16:21:00,
2013-06-23 12:26:00,74.3,67.7,30.08,SW,226,2.0,3.0,80,0.00,,,0.05,895,Wunderground v.1.15,2013-06-23 16:26:00,
2013-06-23 12:32:00,74.8,67.5,30.08,South,177,2.0,4.0,78,0.00,,,0.05,886,Wunderground v.1.15,2013-06-23 16:32:00,
2013-06-23 12:38:00,75.3,67.6,30.07,SW,227,3.0,5.0,77,0.00,,,0.05,865,Wunderground v.1.15,2013-06-23 16:38:00,
2013-06-23 12:44:00,76.0,68.6,30.07,SSW,198,2.0,4.0,78,0.00,,,0.05,838,Wunderground v.1.15,2013-06-23 16:44:00,
2013-06-23 12:49:00,76.1,68.0,30.07,SSW,193,2.0,6.0,76,0.00,,,0.05,837,Wunderground v.1.15,2013-06-23 16:49:00,
2013-06-23 12:54:00,76.3,68.2,30.06,SE,129,3.0,4.0,76,0.00,,,0.05,870,Wunderground v.1.15,2013-06-23 16:54:00,
2013-06-23 12:57:00,76.3,68.2,30.06,SW,225,3.0,4.0,76,0.00,,,0.05,911,Wunderground v.1.15,2013-06-23 16:57:00,
2013-06-23 12:59:00,76.4,68.3,30.06,SW,227,3.0,4.0,76,0.00,,,0.05,900,Wunderground v.1.15,2013-06-23 16:59:00,
2013-06-23 13:01:00,76.4,68.3,30.06,SSW,194,3.0,3.0,76,0.00,,,0.05,877,Wunderground v.1.15,2013-06-23 17:01:00,
2013-06-23 13:03:00,76.4,67.9,30.05,SW,225,3.0,6.0,75,0.00,,,0.05,849,Wunderground v.1.15,2013-06-23 17:03:00,
2013-06-23 13:04:00,76.4,68.3,30.06,South,182,3.0,6.0,76,0.00,,,0.05,849,Wunderground v.1.15,2013-06-23 17:04:00,
2013-06-23 13:10:00,76.9,68.4,30.06,SE,140,3.0,3.0,75,0.00,,,0.05,1021,Wunderground v.1.15,2013-06-23 17:10:00,
2013-06-23 13:16:00,77.2,68.7,30.05,South,169,2.0,4.0,75,0.00,,,0.05,860,Wunderground v.1.15,2013-06-23 17:16:00,
2013-06-23 13:22:00,77.4,68.9,30.04,SE,144,3.0,4.0,75,0.00,,,0.05,860,Wunderground v.1.15,2013-06-23 17:22:00,
2013-06-23 13:27:00,77.6,68.3,30.04,South,174,3.0,8.0,73,0.00,,,0.05,1000,Wunderground v.1.15,2013-06-23 17:27:00,
2013-06-23 13:33:00,77.6,68.7,30.04,SSE,161,4.0,6.0,74,0.00,,,0.05,1000,Wunderground v.1.15,2013-06-23 17:33:00,
2013-06-23 13:39:00,77.4,68.1,30.04,SSE,165,4.0,8.0,73,0.00,,,0.05,844,Wunderground v.1.15,2013-06-23 17:39:00,
2013-06-23 13:44:00,76.9,68.0,30.04,South,171,4.0,6.0,74,0.00,,,0.05,902,Wunderground v.1.15,2013-06-23 17:44:00,
2013-06-23 13:50:00,76.3,67.4,30.04,SSE,160,5.0,5.0,74,0.00,,,0.05,390,Wunderground v.1.15,2013-06-23 17:50:00,
2013-06-23 13:55:00,75.9,67.4,30.04,SE,146,5.0,5.0,75,0.00,,,0.05,1013,Wunderground v.1.15,2013-06-23 17:55:00,
2013-06-23 14:00:00,76.0,67.1,30.04,SSE,151,4.0,6.0,74,0.00,,,0.05,970,Wunderground v.1.15,2013-06-23 18:00:00,
2013-06-23 14:05:00,76.1,67.6,30.04,SSE,164,4.0,8.0,75,0.00,,,0.05,970,Wunderground v.1.15,2013-06-23 18:05:00,
2013-06-23 14:11:00,76.5,68.0,30.04,SSW,205,3.0,4.0,75,0.00,,,0.05,893,Wunderground v.1.15,2013-06-23 18:11:00,
2013-06-23 14:17:00,76.6,67.3,30.04,SW,214,4.0,6.0,73,0.00,,,0.05,898,Wunderground v.1.15,2013-06-23 18:17:00,
2013-06-23 14:22:00,76.0,66.7,30.04,SSE,163,4.0,4.0,73,0.00,,,0.05,385,Wunderground v.1.15,2013-06-23 18:22:00,
2013-06-23 14:28:00,75.4,66.9,30.04,SSW,196,4.0,6.0,75,0.00,,,0.05,357,Wunderground v.1.15,2013-06-23 18:28:00,
2013-06-23 14:34:00,75.1,66.6,30.03,South,186,3.0,5.0,75,0.00,,,0.05,476,Wunderground v.1.15,2013-06-23 18:34:00,
2013-06-23 14:40:00,75.1,66.2,30.03,SSE,157,4.0,7.0,74,0.00,,,0.05,431,Wunderground v.1.15,2013-06-23 18:40:00,
2013-06-23 14:45:00,75.0,66.5,30.03,South,190,4.0,7.0,75,0.00,,,0.05,439,Wunderground v.1.15,2013-06-23 18:45:00,
2013-06-23 14:51:00,74.6,65.8,30.03,SE,130,4.0,5.0,74,0.00,,,0.05,499,Wunderground v.1.15,2013-06-23 18:51:00,
2013-06-23 14:56:00,74.2,65.8,30.02,SSE,166,4.0,5.0,75,0.00,,,0.05,446,Wunderground v.1.15,2013-06-23 18:56:00,
2013-06-23 15:01:00,74.2,66.1,30.02,SSE,157,4.0,7.0,76,0.00,,,0.05,436,Wunderground v.1.15,2013-06-23 19:01:00,
2013-06-23 15:06:00,74.2,65.8,30.02,SE,145,3.0,7.0,75,0.00,,,0.05,478,Wunderground v.1.15,2013-06-23 19:06:00,
2013-06-23 15:12:00,74.4,66.3,30.02,SE,140,3.0,4.0,76,0.00,,,0.05,568,Wunderground v.1.15,2013-06-23 19:12:00,
2013-06-23 15:17:00,74.8,66.7,30.02,SW,215,2.0,5.0,76,0.00,,,0.05,380,Wunderground v.1.15,2013-06-23 19:17:00,
2013-06-23 15:23:00,75.1,66.6,30.02,SSW,211,3.0,3.0,75,0.00,,,0.05,385,Wunderground v.1.15,2013-06-23 19:23:00,
2013-06-23 15:28:00,75.3,66.8,30.02,SW,214,3.0,4.0,75,0.00,,,0.05,362,Wunderground v.1.15,2013-06-23 19:28:00,
2013-06-23 15:34:00,75.3,66.8,30.02,South,184,3.0,6.0,75,0.00,,,0.05,338,Wunderground v.1.15,2013-06-23 19:34:00,
2013-06-23 15:39:00,75.1,66.2,30.02,SE,127,2.0,6.0,74,0.00,,,0.05,248,Wunderground v.1.15,2013-06-23 19:39:00,
2013-06-23 15:45:00,74.8,66.0,30.02,SSW,202,2.0,2.0,74,0.00,,,0.05,230,Wunderground v.1.15,2013-06-23 19:45:00,
2013-06-23 15:50:00,74.4,66.0,30.01,South,188,2.0,3.0,75,0.00,,,0.05,232,Wunderground v.1.15,2013-06-23 19:50:00,
2013-06-23 15:55:00,73.7,65.3,30.01,South,191,2.0,5.0,75,0.00,,,0.05,248,Wunderground v.1.15,2013-06-23 19:55:00,
2013-06-23 16:01:00,73.2,65.2,30.01,SE,141,4.0,5.0,76,0.00,,,0.05,638,Wunderground v.1.15,2013-06-23 20:01:00,
2013-06-23 16:06:00,73.4,65.7,30.00,SSW,199,4.0,5.0,77,0.00,,,0.05,638,Wunderground v.1.15,2013-06-23 20:06:00,
2013-06-23 16:12:00,73.2,65.2,30.00,SSW,195,4.0,7.0,76,0.00,,,0.05,643,Wunderground v.1.15,2013-06-23 20:12:00,
2013-06-23 16:17:00,73.1,65.1,30.00,SSW,205,5.0,7.0,76,0.00,,,0.05,585,Wunderground v.1.15,2013-06-23 20:17:00,
2013-06-23 16:22:00,73.1,65.5,30.00,SSW,200,4.0,5.0,77,0.00,,,0.05,589,Wunderground v.1.15,2013-06-23 20:22:00,
2013-06-23 16:28:00,73.3,65.7,29.99,SE,144,3.0,5.0,77,0.00,,,0.05,538,Wunderground v.1.15,2013-06-23 20:28:00,
2013-06-23 16:33:00,73.4,65.7,29.99,SSE,151,3.0,3.0,77,0.00,,,0.05,554,Wunderground v.1.15,2013-06-23 20:33:00,
2013-06-23 16:39:00,73.5,65.5,29.99,SSW,194,3.0,5.0,76,0.00,,,0.05,260,Wunderground v.1.15,2013-06-23 20:39:00,
2013-06-23 16:45:00,73.1,65.1,29.99,SW,215,3.0,3.0,76,0.00,,,0.05,338,Wunderground v.1.15,2013-06-23 20:45:00,
2013-06-23 16:51:00,73.1,65.5,29.99,SSE,157,2.0,3.0,77,0.00,,,0.05,538,Wunderground v.1.15,2013-06-23 20:51:00,
2013-06-23 16:57:00,73.2,65.6,29.99,SSE,148,2.0,5.0,77,0.00,,,0.05,531,Wunderground v.1.15,2013-06-23 20:57:00,
2013-06-23 17:03:00,73.3,65.7,29.99,SW,225,2.0,3.0,77,0.00,,,0.05,461,Wunderground v.1.15,2013-06-23 21:03:00,
2013-06-23 17:08:00,73.5,65.8,29.99,South,169,2.0,4.0,77,0.00,,,0.05,534,Wunderground v.1.15,2013-06-23 21:08:00,
2013-06-23 17:14:00,73.3,65.7,29.99,South,172,3.0,4.0,77,0.00,,,0.05,369,Wunderground v.1.15,2013-06-23 21:14:00,
2013-06-23 17:19:00,73.3,65.7,29.99,SW,229,3.0,4.0,77,0.00,,,0.05,420,Wunderground v.1.15,2013-06-23 21:19:00,
2013-06-23 17:25:00,72.9,65.3,29.98,SW,217,3.0,6.0,77,0.00,,,0.05,320,Wunderground v.1.15,2013-06-23 21:25:00,
2013-06-23 17:31:00,72.6,65.3,29.98,SSW,199,3.0,4.0,78,0.00,,,0.05,346,Wunderground v.1.15,2013-06-23 21:31:00,
2013-06-23 17:36:00,72.4,65.2,29.97,WSW,238,3.0,5.0,78,0.00,,,0.05,144,Wunderground v.1.15,2013-06-23 21:36:00,
2013-06-23 17:42:00,71.9,65.0,29.97,SSE,166,2.0,4.0,79,0.00,,,0.05,90,Wunderground v.1.15,2013-06-23 21:42:00,
2013-06-23 17:48:00,71.5,64.6,29.97,SSE,155,3.0,5.0,79,0.00,,,0.05,86,Wunderground v.1.15,2013-06-23 21:48:00,
2013-06-23 17:54:00,71.0,64.5,29.97,SSE,150,3.0,4.0,80,0.00,,,0.05,91,Wunderground v.1.15,2013-06-23 21:54:00,
2013-06-23 18:00:00,70.3,64.2,29.97,South,181,3.0,3.0,81,0.00,,,0.05,100,Wunderground v.1.15,2013-06-23 22:00:00,
2013-06-23 18:06:00,69.7,64.0,29.97,SSW,196,3.0,6.0,82,0.00,,,0.05,98,Wunderground v.1.15,2013-06-23 22:06:00,
2013-06-23 18:12:00,69.5,64.1,29.97,SSE,163,2.0,3.0,83,0.00,,,0.05,105,Wunderground v.1.15,2013-06-23 22:12:00,
2013-06-23 18:17:00,69.3,63.9,29.97,SSW,202,2.0,4.0,83,0.00,,,0.05,118,Wunderground v.1.15,2013-06-23 22:17:00,
2013-06-23 18:22:00,69.1,63.7,29.97,SE,126,2.0,3.0,83,0.00,,,0.05,162,Wunderground v.1.15,2013-06-23 22:22:00,
2013-06-23 18:27:00,69.0,64.0,29.97,SE,143,2.0,4.0,84,0.00,,,0.05,171,Wunderground v.1.15,2013-06-23 22:27:00,
2013-06-23 18:33:00,68.8,63.8,29.97,SSE,157,2.0,4.0,84,0.00,,,0.05,127,Wunderground v.1.15,2013-06-23 22:33:00,
2013-06-23 18:39:00,68.5,63.5,29.97,SSE,157,3.0,4.0,84,0.00,,,0.05,77,Wunderground v.1.15,2013-06-23 22:39:00,
2013-06-23 18:45:00,68.2,63.5,29.97,South,175,3.0,3.0,85,0.00,,,0.05,69,Wunderground v.1.15,2013-06-23 22:45:00,
2013-06-23 18:50:00,68.0,63.3,29.97,South,190,2.0,3.0,85,0.00,,,0.05,60,Wunderground v.1.15,2013-06-23 22:50:00,
2013-06-23 18:56:00,67.8,63.5,29.98,South,172,2.0,4.0,86,0.00,,,0.05,40,Wunderground v.1.15,2013-06-23 22:56:00,
2013-06-23 19:02:00,67.5,63.2,29.98,South,188,2.0,4.0,86,0.00,,,0.05,28,Wunderground v.1.15,2013-06-23 23:02:00,
2013-06-23 19:08:00,67.3,63.3,29.98,South,186,2.0,4.0,87,0.00,,,0.05,25,Wunderground v.1.15,2013-06-23 23:08:00,
2013-06-23 19:14:00,67.1,63.1,29.98,SSW,205,1.0,4.0,87,0.00,,,0.05,21,Wunderground v.1.15,2013-06-23 23:14:00,
2013-06-23 19:20:00,67.0,63.3,29.98,SSW,192,1.0,1.0,88,0.00,,,0.05,19,Wunderground v.1.15,2013-06-23 23:20:00,
2013-06-23 19:25:00,66.8,63.1,29.98,SW,215,1.0,2.0,88,0.00,,,0.05,18,Wunderground v.1.15,2013-06-23 23:25:00,
2013-06-23 19:31:00,66.7,63.0,29.98,SSE,165,1.0,1.0,88,0.00,,,0.05,19,Wunderground v.1.15,2013-06-23 23:31:00,
2013-06-23 19:36:00,66.6,63.3,29.99,SSW,211,0.0,1.0,89,0.00,,,0.05,14,Wunderground v.1.15,2013-06-23 23:36:00,
2013-06-23 19:41:00,66.6,62.9,29.99,SW,233,0.0,2.0,88,0.00,,,0.05,11,Wunderground v.1.15,2013-06-23 23:41:00,
2013-06-23 19:47:00,66.4,63.1,29.99,SSE,166,1.0,3.0,89,0.00,,,0.05,9,Wunderground v.1.15,2013-06-23 23:47:00,
2013-06-23 19:52:00,66.2,62.9,29.99,SSW,194,2.0,2.0,89,0.00,,,0.05,7,Wunderground v.1.15,2013-06-23 23:52:00,
2013-06-23 19:57:00,66.0,63.0,29.99,South,178,2.0,5.0,90,0.00,,,0.05,5,Wunderground v.1.15,2013-06-23 23:57:00,
2013-06-23 20:02:00,65.8,62.8,29.98,South,185,2.0,2.0,90,0.00,,,0.05,7,Wunderground v.1.15,2013-06-24 00:02:00,
2013-06-23 20:07:00,65.5,62.8,29.98,SE,137,2.0,5.0,91,0.00,,,0.05,5,Wunderground v.1.15,2013-06-24 00:07:00,
2013-06-23 20:12:00,65.3,62.6,29.98,SSW,200,3.0,3.0,91,0.00,,,0.05,5,Wunderground v.1.15,2013-06-24 00:12:00,
2013-06-23 20:18:00,65.2,62.8,29.97,SSW,210,2.0,3.0,92,0.00,,,0.05,0,Wunderground v.1.15,2013-06-24 00:18:00,
2013-06-23 20:24:00,65.1,62.7,29.98,NW,309,1.0,2.0,92,0.00,,,0.05,0,Wunderground v.1.15,2013-06-24 00:24:00,
2013-06-23 20:30:00,64.9,62.5,29.98,NNE,13,2.0,2.0,92,0.00,,,0.05,0,Wunderground v.1.15,2013-06-24 00:30:00,
2013-06-23 20:35:00,64.8,62.7,29.97,NE,48,2.0,2.0,93,0.00,,,0.05,0,Wunderground v.1.15,2013-06-24 00:35:00,
2013-06-23 20:40:00,64.8,62.7,29.97,South,171,1.0,1.0,93,0.00,,,0.05,0,Wunderground v.1.15,2013-06-24 00:40:00,
2013-06-23 20:46:00,64.9,63.1,29.97,SSW,197,1.0,2.0,94,0.00,,,0.05,0,Wunderground v.1.15,2013-06-24 00:46:00,
2013-06-23 20:51:00,64.9,63.1,29.96,SSW,197,0.0,0.0,94,0.00,,,0.05,0,Wunderground v.1.15,2013-06-24 00:51:00,
2013-06-23 20:56:00,64.9,63.1,29.96,SSW,195,0.0,0.0,94,0.00,,,0.05,0,Wunderground v.1.15,2013-06-24 00:56:00,
2013-06-23 21:02:00,64.8,63.0,29.96,South,169,1.0,2.0,94,0.00,,,0.05,0,Wunderground v.1.15,2013-06-24 01:02:00,
2013-06-23 21:08:00,64.7,62.9,29.96,SSE,158,1.0,2.0,94,0.00,,,0.05,0,Wunderground v.1.15,2013-06-24 01:08:00,
2013-06-23 21:13:00,64.7,62.9,29.96,SSW,201,1.0,1.0,94,0.00,,,0.05,0,Wunderground v.1.15,2013-06-24 01:13:00,
2013-06-23 21:19:00,64.7,62.9,29.97,South,186,0.0,1.0,94,0.00,,,0.05,0,Wunderground v.1.15,2013-06-24 01:19:00,
2013-06-23 21:24:00,64.6,62.8,29.97,North,355,1.0,2.0,94,0.00,,,0.05,0,Wunderground v.1.15,2013-06-24 01:24:00,
2013-06-23 21:30:00,64.5,63.0,29.97,North,355,0.0,0.0,95,0.00,,,0.05,0,Wunderground v.1.15,2013-06-24 01:30:00,
2013-06-23 21:35:00,64.5,63.0,29.96,North,355,0.0,0.0,95,0.00,,,0.05,0,Wunderground v.1.15,2013-06-24 01:35:00,
2013-06-23 21:40:00,64.5,63.0,29.96,North,355,0.0,0.0,95,0.00,,,0.05,0,Wunderground v.1.15,2013-06-24 01:40:00,
2013-06-23 21:46:00,64.5,63.0,29.96,SSW,209,0.0,1.0,95,0.00,,,0.05,0,Wunderground v.1.15,2013-06-24 01:46:00,
2013-06-23 21:51:00,64.5,63.0,29.97,SSW,192,1.0,3.0,95,0.00,,,0.05,0,Wunderground v.1.15,2013-06-24 01:51:00,
2013-06-23 21:56:00,64.4,62.9,29.97,South,189,1.0,3.0,95,0.00,,,0.05,0,Wunderground v.1.15,2013-06-24 01:56:00,
2013-06-23 22:02:00,64.3,63.1,29.97,South,176,1.0,1.0,96,0.00,,,0.05,0,Wunderground v.1.15,2013-06-24 02:02:00,
2013-06-23 22:08:00,64.4,63.2,29.97,SSE,163,0.0,1.0,96,0.00,,,0.05,0,Wunderground v.1.15,2013-06-24 02:08:00,
2013-06-23 22:13:00,64.5,63.3,29.97,SSE,164,0.0,1.0,96,0.00,,,0.05,0,Wunderground v.1.15,2013-06-24 02:13:00,
2013-06-23 22:18:00,64.5,63.3,29.97,SSE,163,0.0,1.0,96,0.00,,,0.05,0,Wunderground v.1.15,2013-06-24 02:18:00,
2013-06-23 22:24:00,64.5,63.3,29.97,SSE,163,0.0,0.0,96,0.00,,,0.05,0,Wunderground v.1.15,2013-06-24 02:24:00,
2013-06-23 22:30:00,64.6,63.4,29.96,SSE,163,0.0,0.0,96,0.00,,,0.05,0,Wunderground v.1.15,2013-06-24 02:30:00,
2013-06-23 22:36:00,65.0,64.1,29.96,SSW,211,0.0,2.0,97,0.00,,,0.05,0,Wunderground v.1.15,2013-06-24 02:36:00,
2013-06-23 22:41:00,65.3,64.4,29.96,West,272,0.0,0.0,97,0.00,,,0.05,0,Wunderground v.1.15,2013-06-24 02:41:00,
2013-06-23 22:46:00,65.6,64.7,29.97,West,275,0.0,0.0,97,0.00,,,0.05,0,Wunderground v.1.15,2013-06-24 02:46:00,
2013-06-23 22:51:00,65.9,65.0,29.96,NW,307,0.0,2.0,97,0.00,,,0.06,0,Wunderground v.1.15,2013-06-24 02:51:00,
2013-06-23 22:56:00,66.2,65.3,29.97,NW,307,0.0,2.0,97,0.00,,,0.06,0,Wunderground v.1.15,2013-06-24 02:56:00,
2013-06-23 23:01:00,66.3,65.4,29.96,WNW,292,0.0,0.0,97,0.00,,,0.06,0,Wunderground v.1.15,2013-06-24 03:01:00,
2013-06-23 23:07:00,66.5,65.6,29.96,NW,315,0.0,0.0,97,0.00,,,0.06,0,Wunderground v.1.15,2013-06-24 03:07:00,
2013-06-23 23:12:00,66.7,65.8,29.96,WNW,294,0.0,1.0,97,0.00,,,0.06,0,Wunderground v.1.15,2013-06-24 03:12:00,
2013-06-23 23:17:00,66.8,65.9,29.96,WNW,294,0.0,1.0,97,0.00,,,0.06,0,Wunderground v.1.15,2013-06-24 03:17:00,
2013-06-23 23:22:00,66.9,66.0,29.95,West,273,0.0,0.0,97,0.00,,,0.06,0,Wunderground v.1.15,2013-06-24 03:22:00,
2013-06-23 23:27:00,67.0,66.1,29.95,West,273,0.0,0.0,97,0.00,,,0.06,0,Wunderground v.1.15,2013-06-24 03:27:00,
2013-06-23 23:33:00,67.1,66.2,29.95,SSW,209,0.0,0.0,97,0.00,,,0.06,0,Wunderground v.1.15,2013-06-24 03:33:00,
2013-06-23 23:38:00,67.1,66.2,29.95,SSW,210,0.0,0.0,97,0.00,,,0.06,0,Wunderground v.1.15,2013-06-24 03:38:00,
2013-06-23 23:44:00,67.2,66.3,29.95,SSW,210,0.0,0.0,97,0.00,,,0.06,0,Wunderground v.1.15,2013-06-24 03:44:00,
2013-06-23 23:50:00,67.2,66.3,29.95,SSW,210,0.0,0.0,97,0.00,,,0.06,0,Wunderground v.1.15,2013-06-24 03:50:00,
2013-06-23 23:56:00,67.2,66.3,29.95,SW,223,0.0,2.0,97,0.00,,,0.06,0,Wunderground v.1.15,2013-06-24 03:56:00,